When you browse on this site, cookies collect data to enhance your experience and personalize the content and advertising you see.
Visit our Privacy Policy to learn more. By continuing to use the site, you agree to this use of cookies and data.
  • In Switzerland
  • List of Countries
  • For 7 days
  • Water Temperature
  • Weather Map
  • Weather Widgets
  • user-avatar
    Login

    Hourly Weather Malanville

    Today, 16 October, Wednesday

    Time Temperature Precipitation Wind Pressure Humidity
    00:00 +29°C° 0 mm 2 mps 743 mmHg 69%
    01:00 +28°C° 0 mm 2 mps 743 mmHg 71%
    02:00 +28°C° 0 mm 2 mps 742 mmHg 73%
    03:00 +27°C° 0 mm 3 mps 742 mmHg 75%
    04:00 +27°C° 0 mm 2 mps 742 mmHg 78%
    05:00 +27°C° 0 mm 2 mps 743 mmHg 80%
    06:00 +27°C° 0 mm 2 mps 743 mmHg 83%
    07:00 +29°C° 0 mm 2 mps 743 mmHg 74%
    08:00 +31°C° 0 mm 3 mps 744 mmHg 66%
    09:00 +34°C° 0 mm 3 mps 744 mmHg 58%
    10:00 +35°C° 0 mm 2 mps 744 mmHg 52%
    11:00 +37°C° 0 mm 2 mps 743 mmHg 46%
    12:00 +37°C° 0 mm 1 mps 743 mmHg 41%
    13:00 +37°C° 0 mm 1 mps 743 mmHg 38%
    14:00 +39°C° 0 mm 1 mps 742 mmHg 36%
    15:00 +39°C° 0 mm 1 mps 741 mmHg 33%
    16:00 +37°C° 0 mm 2 mps 741 mmHg 39%
    17:00 +35°C° 0 mm 2 mps 741 mmHg 45%
    18:00 +34°C° 0 mm 2 mps 742 mmHg 50%
    19:00 +32°C° 0 mm 2 mps 742 mmHg 52%
    20:00 +31°C° 0 mm 2 mps 743 mmHg 54%
    21:00 +31°C° 0 mm 2 mps 743 mmHg 56%
    22:00 +30°C° 0 mm 2 mps 743 mmHg 60%
    23:00 +30°C° 0 mm 2 mps 743 mmHg 63%

    Tomorrow, 17 October, Thursday

    Time Temperature Precipitation Wind Pressure Humidity
    00:00 +29°C° 0 mm 2 mps 743 mmHg 67%
    01:00 +29°C° 0 mm 3 mps 742 mmHg 70%
    02:00 +28°C° 0 mm 3 mps 742 mmHg 72%
    03:00 +28°C° 0 mm 3 mps 742 mmHg 75%
    04:00 +27°C° 0 mm 2 mps 742 mmHg 77%
    05:00 +27°C° 0 mm 2 mps 743 mmHg 80%
    06:00 +27°C° 0 mm 2 mps 743 mmHg 82%
    07:00 +29°C° 0 mm 2 mps 743 mmHg 74%
    08:00 +30°C° 0 mm 2 mps 744 mmHg 67%
    09:00 +32°C° 0 mm 2 mps 744 mmHg 59%
    10:00 +35°C° 0 mm 2 mps 744 mmHg 53%
    11:00 +36°C° 0 mm 2 mps 744 mmHg 47%
    12:00 +38°C° 0 mm 2 mps 743 mmHg 41%
    13:00 +37°C° 0 mm 1 mps 742 mmHg 38%
    14:00 +39°C° 0 mm 1 mps 742 mmHg 35%
    15:00 +39°C° 0 mm 1 mps 741 mmHg 32%
    16:00 +37°C° 0 mm 1 mps 741 mmHg 37%
    17:00 +35°C° 0 mm 1 mps 741 mmHg 41%
    18:00 +34°C° 0 mm 2 mps 741 mmHg 45%
    19:00 +34°C° 0 mm 2 mps 742 mmHg 48%
    20:00 +32°C° 0 mm 2 mps 742 mmHg 50%
    21:00 +31°C° 0 mm 2 mps 743 mmHg 53%
    22:00 +31°C° 0 mm 2 mps 743 mmHg 55%
    23:00 +30°C° 0 mm 2 mps 742 mmHg 58%

    Day after tomorrow, 18 October, Friday

    Time Temperature Precipitation Wind Pressure Humidity
    00:00 +30°C° 0 mm 2 mps 742 mmHg 60%
    01:00 +29°C° 0 mm 2 mps 742 mmHg 63%
    02:00 +29°C° 0 mm 2 mps 742 mmHg 66%
    03:00 +28°C° 0 mm 2 mps 741 mmHg 69%
    04:00 +28°C° 0 mm 2 mps 742 mmHg 71%
    05:00 +28°C° 0 mm 2 mps 742 mmHg 73%
    06:00 +27°C° 0 mm 2 mps 742 mmHg 75%
    07:00 +29°C° 0 mm 2 mps 742 mmHg 69%
    08:00 +31°C° 0 mm 3 mps 743 mmHg 62%
    09:00 +34°C° 0 mm 3 mps 743 mmHg 55%
    10:00 +36°C° 0 mm 3 mps 743 mmHg 50%
    11:00 +37°C° 0 mm 2 mps 742 mmHg 45%
    12:00 +38°C° 0 mm 2 mps 741 mmHg 40%
    13:00 +39°C° 0 mm 1 mps 741 mmHg 37%
    14:00 +39°C° 0 mm 1 mps 740 mmHg 34%
    15:00 +37°C° 0 mm 0 mps 740 mmHg 31%
    16:00 +37°C° 0 mm 1 mps 740 mmHg 35%
    17:00 +37°C° 0 mm 2 mps 740 mmHg 38%
    18:00 +35°C° 0 mm 2 mps 740 mmHg 42%
    19:00 +34°C° 0 mm 2 mps 741 mmHg 46%
    20:00 +32°C° 0 mm 2 mps 741 mmHg 51%
    21:00 +31°C° 0 mm 1 mps 742 mmHg 56%
    22:00 +30°C° 0.1 mm 2 mps 742 mmHg 62%
    23:00 +29°C° 0.1 mm 3 mps 741 mmHg 68%

    19 October, Saturday

    Time Temperature Precipitation Wind Pressure Humidity
    00:00 +28°C° 0.1 mm 4 mps 741 mmHg 74%
    01:00 +28°C° 0 mm 3 mps 741 mmHg 75%
    02:00 +28°C° 0 mm 2 mps 741 mmHg 75%
    03:00 +27°C° 0 mm 2 mps 740 mmHg 76%
    04:00 +27°C° 0 mm 2 mps 741 mmHg 76%
    05:00 +27°C° 0 mm 2 mps 741 mmHg 76%
    06:00 +26°C° 0 mm 2 mps 742 mmHg 76%
    07:00 +28°C° 0 mm 3 mps 742 mmHg 70%
    08:00 +30°C° 0 mm 3 mps 743 mmHg 63%
    09:00 +33°C° 0 mm 3 mps 743 mmHg 57%
    10:00 +34°C° 0 mm 3 mps 743 mmHg 52%
    11:00 +36°C° 0 mm 3 mps 742 mmHg 48%
    12:00 +37°C° 0 mm 3 mps 741 mmHg 43%
    13:00 +38°C° 0 mm 3 mps 741 mmHg 42%
    14:00 +38°C° 0 mm 3 mps 741 mmHg 41%
    15:00 +38°C° 0 mm 3 mps 740 mmHg 39%
    16:00 +37°C° 0 mm 3 mps 740 mmHg 45%
    17:00 +35°C° 0 mm 3 mps 741 mmHg 50%
    18:00 +34°C° 0 mm 3 mps 741 mmHg 55%
    19:00 +31°C° 0.6 mm 3 mps 741 mmHg 62%
    20:00 +30°C° 0.6 mm 3 mps 742 mmHg 69%
    21:00 +29°C° 0.6 mm 3 mps 743 mmHg 75%
    22:00 +29°C° 0.5 mm 3 mps 743 mmHg 77%
    23:00 +28°C° 0.5 mm 4 mps 743 mmHg 78%

    20 October, Sunday

    Time Temperature Precipitation Wind Pressure Humidity
    00:00 +28°C° 0.5 mm 5 mps 743 mmHg 79%
    01:00 +27°C° 0.4 mm 5 mps 743 mmHg 80%
    02:00 +27°C° 0.4 mm 5 mps 743 mmHg 81%
    03:00 +26°C° 0.4 mm 5 mps 743 mmHg 82%
    04:00 +26°C° 0 mm 4 mps 743 mmHg 83%
    05:00 +26°C° 0 mm 3 mps 743 mmHg 84%
    06:00 +26°C° 0 mm 3 mps 743 mmHg 85%
    07:00 +27°C° 0 mm 2 mps 743 mmHg 79%
    08:00 +28°C° 0 mm 2 mps 744 mmHg 73%
    09:00 +30°C° 0 mm 2 mps 744 mmHg 66%
    10:00 +30°C° 0 mm 2 mps 744 mmHg 63%
    11:00 +31°C° 0 mm 2 mps 743 mmHg 59%
    12:00 +32°C° 0 mm 2 mps 742 mmHg 56%
    13:00 +32°C° 0 mm 2 mps 742 mmHg 55%
    14:00 +34°C° 0 mm 2 mps 742 mmHg 54%
    15:00 +34°C° 0 mm 2 mps 741 mmHg 53%
    16:00 +32°C° 0 mm 2 mps 742 mmHg 57%
    17:00 +31°C° 0 mm 2 mps 742 mmHg 61%
    18:00 +30°C° 0 mm 2 mps 742 mmHg 66%
    19:00 +29°C° 0 mm 2 mps 743 mmHg 68%
    20:00 +29°C° 0 mm 2 mps 743 mmHg 70%
    21:00 +28°C° 0 mm 2 mps 744 mmHg 71%
    22:00 +28°C° 0.1 mm 2 mps 744 mmHg 74%
    23:00 +28°C° 0.1 mm 2 mps 744 mmHg 77%

    21 October, Monday

    Time Temperature Precipitation Wind Pressure Humidity
    00:00 +27°C° 0.1 mm 2 mps 743 mmHg 79%
    01:00 +27°C° 0 mm 2 mps 743 mmHg 80%
    02:00 +27°C° 0 mm 2 mps 743 mmHg 81%
    03:00 +26°C° 0 mm 2 mps 743 mmHg 82%
    04:00 +26°C° 0 mm 3 mps 743 mmHg 83%
    05:00 +26°C° 0 mm 3 mps 743 mmHg 84%
    06:00 +26°C° 0 mm 3 mps 743 mmHg 84%
    07:00 +28°C° 0 mm 3 mps 744 mmHg 76%
    08:00 +30°C° 0 mm 3 mps 744 mmHg 67%
    09:00 +32°C° 0 mm 2 mps 744 mmHg 59%
    10:00 +35°C° 0 mm 2 mps 744 mmHg 53%
    11:00 +35°C° 0 mm 1 mps 743 mmHg 47%
    12:00 +35°C° 0 mm 0 mps 742 mmHg 41%
    13:00 +37°C° 0 mm 1 mps 742 mmHg 39%
    14:00 +39°C° 0 mm 1 mps 741 mmHg 38%
    15:00 +39°C° 0 mm 2 mps 740 mmHg 36%
    16:00 +37°C° 0 mm 2 mps 741 mmHg 40%
    17:00 +36°C° 0 mm 2 mps 741 mmHg 44%
    18:00 +34°C° 0 mm 2 mps 741 mmHg 48%
    19:00 +34°C° 0 mm 2 mps 741 mmHg 51%
    20:00 +32°C° 0 mm 2 mps 742 mmHg 54%
    21:00 +31°C° 0 mm 2 mps 742 mmHg 56%
    22:00 +31°C° 0 mm 2 mps 742 mmHg 60%
    23:00 +30°C° 0 mm 2 mps 742 mmHg 63%
    Show more